Total_Precipitation_Accumulation
1.43 1.52 1.66 1.83 1.90 1.93 1.91 1.77 1.72 1.66 1.63 1.68 1.66 1.67 1.71 1.73 1.74 1.72 1.66 1.60 1.60 1.56 1.55 1.56 1.50 1.42 1.41 1.42 1.46 1.50 1.57 1.71 1.69 1.23 1.04 1.01 1.03 1.01 1.02 0.97 0.90 0.89 0.86
1.28 1.32 1.37 1.50 1.67 1.74 1.81 1.72 1.59 1.54 1.46 1.47 1.47 1.44 1.42 1.42 1.46 1.49 1.47 1.45 1.44 1.42 1.41 1.45 1.46 1.44 1.43 1.39 1.38 1.36 1.34 1.34 1.45 1.28 1.00 0.97 0.97 0.95 1.00 1.03 0.97 0.89 0.80
1.14 1.15 1.23 1.33 1.44 1.49 1.51 1.57 1.52 1.53 1.42 1.35 1.33 1.31 1.28 1.26 1.26 1.28 1.33 1.35 1.34 1.32 1.31 1.32 1.34 1.40 1.38 1.29 1.25 1.22 1.19 1.21 1.30 1.31 1.10 0.97 0.95 0.95 1.01 1.02 0.99 0.96 0.89
1.10 1.06 1.11 1.16 1.29 1.35 1.31 1.35 1.36 1.41 1.43 1.32 1.24 1.21 1.19 1.20 1.20 1.21 1.28 1.32 1.31 1.29 1.29 1.30 1.25 1.25 1.22 1.18 1.17 1.17 1.23 1.34 1.36 1.40 1.29 1.10 1.03 0.99 1.05 1.05 1.03 0.96 0.98
1.06 1.04 1.04 1.05 1.11 1.17 1.13 1.15 1.20 1.25 1.35 1.31 1.24 1.21 1.18 1.17 1.20 1.22 1.25 1.29 1.30 1.29 1.25 1.22 1.19 1.22 1.20 1.18 1.19 1.20 1.26 1.43 1.54 1.59 1.49 1.31 1.19 1.11 1.07 1.02 1.11 1.11 1.12
0.99 0.99 0.98 0.98 1.02 1.09 1.06 1.05 1.09 1.17 1.28 1.32 1.32 1.29 1.23 1.22 1.40 1.37 1.27 1.25 1.28 1.28 1.25 1.17 1.14 1.20 1.17 1.18 1.21 1.28 1.42 1.59 1.73 1.76 1.66 1.46 1.19 1.06 1.08 1.21 1.37 1.55 1.50
0.93 0.94 0.97 1.01 1.03 1.07 1.06 1.06 1.10 1.18 1.29 1.35 1.37 1.38 1.35 1.37 1.44 1.30 1.29 1.19 1.17 1.18 1.16 1.13 1.07 1.04 1.10 1.01 1.10 1.22 1.31 1.44 1.52 1.53 1.50 1.23 1.08 1.04 1.28 1.56 1.61 1.65 1.44
0.82 0.90 0.91 0.96 0.97 0.98 1.03 1.06 1.11 1.15 1.23 1.32 1.37 1.34 1.30 1.31 1.33 1.20 1.18 1.10 1.10 1.08 1.06 1.05 1.06 1.04 1.03 1.10 1.16 1.23 1.10 1.04 1.07 1.06 1.09 1.07 1.09 1.21 1.51 1.86 1.97 1.97 1.72
0.76 0.87 0.92 0.97 1.00 1.01 1.06 1.07 1.09 1.14 1.17 1.17 1.21 1.23 1.21 1.22 1.21 1.10 1.07 1.00 1.02 0.97 0.92 0.93 0.97 0.97 1.14 1.32 1.37 1.38 1.17 0.95 0.96 1.09 1.20 1.23 1.31 1.42 1.56 1.91 2.21 2.34 2.03
0.73 0.83 0.89 0.97 1.08 1.11 1.11 1.10 1.06 1.09 1.15 1.10 1.06 1.05 1.03 1.03 1.09 1.03 1.00 0.93 0.96 0.91 0.87 0.87 0.98 1.01 1.18 1.32 1.27 1.34 1.30 1.07 1.01 1.06 1.12 1.16 1.14 1.23 1.48 1.66 2.19 2.75 2.45
0.76 0.81 0.85 0.88 0.96 1.02 1.02 1.03 1.04 1.01 1.01 0.96 0.93 0.91 0.88 0.90 0.94 0.92 0.92 0.89 0.91 0.90 0.85 0.80 0.81 1.05 1.18 1.26 1.21 1.10 1.21 1.27 1.20 1.18 1.18 1.18 1.18 1.22 1.30 1.43 1.80 2.60 2.96
0.71 0.78 0.86 0.86 0.89 0.92 0.95 0.98 1.01 0.97 0.93 0.88 0.83 0.82 0.78 0.78 0.84 0.85 0.89 0.93 1.01 0.94 0.83 0.75 0.80 1.02 1.06 1.08 1.06 1.11 1.29 1.30 1.17 1.30 1.37 1.35 1.32 1.31 1.33 1.41 1.54 1.77 2.10
0.70 0.75 0.82 0.84 0.86 0.89 0.90 0.92 0.93 0.91 0.87 0.82 0.78 0.75 0.73 0.72 0.78 0.89 0.90 0.98 1.03 0.96 0.86 0.90 0.94 0.97 0.95 0.95 1.06 1.19 1.18 1.09 1.23 1.46 1.48 1.41 1.40 1.47 1.52 1.57 1.57 1.60 1.65
0.68 0.71 0.74 0.79 0.81 0.80 0.82 0.87 0.90 0.92 0.89 0.82 0.78 0.75 0.71 0.69 0.70 0.75 0.83 0.88 0.93 0.94 0.94 0.95 0.91 0.89 0.90 0.94 1.01 1.02 1.01 1.10 1.37 1.56 1.56 1.48 1.48 1.58 1.68 1.77 1.89 1.85 1.86
0.62 0.65 0.67 0.69 0.73 0.76 0.77 0.82 0.89 0.89 0.96 1.00 0.93 0.87 0.84 0.79 0.75 0.88 0.95 0.92 0.93 0.96 0.98 0.92 0.86 0.84 0.85 0.85 0.88 0.91 0.98 1.13 1.28 1.35 1.52 1.60 1.58 1.63 1.72 1.81 1.97 2.00 1.93
0.56 0.59 0.62 0.64 0.67 0.70 0.72 0.75 0.83 0.85 0.92 0.95 0.98 1.00 0.92 0.90 0.91 0.92 0.92 0.97 1.02 1.05 1.04 0.98 0.92 0.88 0.90 0.90 0.92 0.95 0.99 1.13 1.29 1.47 1.61 1.74 1.82 1.86 1.91 1.88 1.91 1.94 1.82
0.53 0.57 0.58 0.59 0.63 0.67 0.68 0.70 0.73 0.74 0.76 0.80 0.87 0.93 0.96 0.98 0.95 0.90 0.91 0.94 0.95 1.01 0.99 0.95 0.94 0.95 0.96 0.98 1.01 1.06 1.09 1.15 1.40 1.66 1.80 1.89 2.00 2.04 2.01 1.92 1.78 1.67 1.51
0.46 0.52 0.55 0.55 0.58 0.61 0.63 0.67 0.70 0.71 0.70 0.71 0.77 0.86 0.91 0.92 0.93 0.92 0.93 0.89 0.85 0.85 0.89 0.98 1.04 1.07 1.07 1.09 1.12 1.22 1.30 1.36 1.52 1.72 1.84 1.93 2.09 2.17 2.01 1.76 1.55 1.43 1.33
0.42 0.45 0.49 0.52 0.54 0.56 0.57 0.60 0.64 0.65 0.65 0.64 0.62 0.70 0.80 0.83 0.87 0.90 0.87 0.78 0.77 0.78 0.84 0.94 1.02 1.08 1.12 1.15 1.20 1.31 1.47 1.61 1.69 1.87 1.95 2.03 2.11 2.10 1.82 1.46 1.25 1.12 1.13
0.40 0.47 0.49 0.48 0.48 0.49 0.50 0.53 0.57 0.59 0.61 0.60 0.60 0.63 0.67 0.73 0.75 0.74 0.74 0.74 0.75 0.76 0.79 0.88 0.94 1.03 1.13 1.24 1.32 1.43 1.59 1.66 1.75 1.87 1.97 2.00 1.89 1.78 1.58 1.27 1.13 1.12 1.06
0.41 0.43 0.47 0.45 0.42 0.44 0.47 0.49 0.53 0.56 0.57 0.57 0.58 0.65 0.79 0.82 0.75 0.69 0.71 0.74 0.78 0.81 0.84 0.91 0.96 1.04 1.16 1.29 1.43 1.49 1.58 1.65 1.75 1.88 1.87 1.75 1.59 1.42 1.21 1.16 1.11 1.08 1.07
0.40 0.42 0.43 0.43 0.42 0.45 0.49 0.50 0.53 0.55 0.53 0.52 0.51 0.56 0.68 0.67 0.63 0.64 0.65 0.68 0.71 0.75 0.80 0.88 0.93 0.98 1.22 1.54 1.77 1.84 1.71 1.63 1.65 1.73 1.67 1.46 1.29 1.17 1.12 1.14 1.12 1.12 1.11
0.39 0.41 0.42 0.42 0.45 0.51 0.53 0.48 0.50 0.51 0.51 0.50 0.51 0.52 0.55 0.58 0.58 0.59 0.60 0.61 0.62 0.65 0.69 0.78 0.88 0.91 1.05 1.42 1.79 2.17 2.25 2.00 1.83 1.82 1.83 1.59 1.32 1.21 1.21 1.21 1.14 1.14 1.07
0.37 0.39 0.42 0.43 0.45 0.48 0.50 0.49 0.49 0.50 0.50 0.50 0.50 0.52 0.54 0.57 0.57 0.55 0.55 0.58 0.61 0.61 0.63 0.72 0.81 0.89 1.03 1.36 1.66 1.86 2.03 2.14 2.20 2.13 2.00 1.86 1.52 1.28 1.24 1.20 1.08 1.03 1.02
0.39 0.42 0.44 0.45 0.47 0.48 0.50 0.50 0.49 0.49 0.50 0.51 0.51 0.52 0.52 0.52 0.52 0.50 0.50 0.53 0.56 0.55 0.55 0.61 0.74 0.90 1.08 1.31 1.56 1.74 1.84 1.90 1.87 1.82 1.76 1.63 1.42 1.20 1.18 1.16 1.07 1.00 0.98
0.41 0.44 0.46 0.46 0.48 0.49 0.50 0.50 0.48 0.48 0.50 0.49 0.50 0.51 0.52 0.53 0.52 0.51 0.51 0.52 0.53 0.51 0.50 0.53 0.63 0.82 1.02 1.24 1.42 1.64 1.70 1.55 1.33 1.25 1.37 1.45 1.32 1.13 1.11 1.16 1.07 1.03 0.99